EHI
0 0 0 0 0 0 0 0 0 0 0 0 0 0 0 0 0 0 0 0 0 0 0 0 0 0 0 0 0 0 0 0 0 0 0 0 0 0 0 0 0 0 0
0 0 0 0 0 0 0 0 0 0 0 0 0 0 0 0 0 0 0 0 0 0 0 0 0 0 0 0 0 0 0 0 0 0 0 0 0 0 0 0 0 0 0
0 0 0 0 0 0 0 0 0 0 0 0 0 0 0 0 0 0 0 0 0 0 0 0 0 0 0 0 0 0 0 0 0 0 0 0 0 0 0 0 0 0 0
0 0 0 0 0 0 0 0 0 0 0 0 0 0 0 0 0 0 0 0 0 0 0 0 0 0 0 0 0 0 0 0 0 0 0 0 0 0 0 0 0 0 0
0 0 0 0 0 0 0 0 0 0 0 0 0 0 0 0 0 0 0 0 0 0 0 0 0 0 0 0 0 0 0 0 0 0 0 0 0 0 0 0 0 0 0
0 0 0 0 0 0 0 0 0 0 0 0 0 0 0 0 0 0 0 0 0 0 0 0 0 0 0 0 0 0 0 0 0 0 0 0 0 0 0 0 0 0 0
0 0 0 0 0 0 0 0 0 0 0 0 0 0 0 0 0 0 0 0 0 0 0 0 0 0 0 0 0 0 0 0 0 0 0 0 0 0 0 0 0 0 0
0 0 0 0 0 0 0 0 0 0 0 0 0 0 0 0 0 0 0 0 0 0 0 0 0 0 0 0 0 0 0 0 0 0 0 0 0 0 0 0 0 0 0
0 0 0 0 0 0 0 0 0 0 0 0 0 0 0 0 0 0 0 0 0 0 0 0 0 0 0 0 0 0 0 0 0 0 0 0 0 0 0 0 0 0 0
0 0 0 0 0 0 0 0 0 0 0 0 0 0 0 0 0 0 0 0 0 0 0 0 0 0 0 0 0 0 0 0 0 0 0 0 0 0 0 0 0 0 0
0 0 0 0 0 0 0 0 0 0 0 0 0 0 0 0 0 0 0 0 0 0 0 0 0 0 0 0 0 0 0 0 0 0 0 0 0 0 0 0 0 0 0
0 0 0 0 0 0 0 0 0 0 0 0 0 0 0 0 0 0 0 0 0 0 0 0 0 0 0 0 0 0 0 0 0 0 0 0 0 0 0 0 0 0 0
0 0 0 0 0 0 0 0 0 0 0 0 0 0 0 0 0 0 0 0 0 0 0 0 0 0 0 0 0 0 0 0 0 0 0 0 0 0 0 0 0 0 0
0 0 0 0 0 0 0 0 0 0 0 0 0 0 0 0 0 0 0 0 0 0 0 0 0 0 0 0 0 0 0 0 0 0 0 0 0 0 0 0 0 0 0
0 0 0 0 0 0 0 0 0 0 0 0 0 0 0 0 0 0 0 0 0 0 0 0 0 0 0 0 0 0 0 0 0 0 0 0 0 0 0 0 0 0 0
0 0 0 0 0 0 0 0 0 0 0 0 0 0 0 0 0 0 0 0 0 0 0 0 0 0 0 0 0 0 0 0 0 0 0 0 0 0 0 0 0 0 0
0 0 0 0 0 0 0 0 0 0 0 0 0 0 0 0 0 0 0 0 0 0 0 0 0 0 0 0 0 0 0 0 0 0 0 0 0 0 0 0 0 0 0
0 0 0 0 0 0 0 0 0 0 0 0 0 0 0 0 0 0 0 0 0 0 0 0 0 0 0 0 0 0 0 0 0 0 0 0 0 0 0 0 0 0 0
0 0 0 0 0 0 0 0 0 0 0 0 0 0 0 0 0 0 0 0 0 0 0 0 0 0 0 0 0 0 0 0 0 0 0 0 0 0 0 0 0 0 0
0 0 0 0 0 0 0 0 0 0 0 0 0 0 0 0 0 0 0 0 0 0 0 0 0 0 0 0 0 0 0 0 0 0 0 0 0 0 0 0 0 0 0
0 0 0 0 0 0 0 0 0 0 0 0 0 0 0 0 0 0 0 0 0 0 0 0 0 0 0 0 0 0 0 0 0 0 0 0 0 0 0 0 0 0 0
0 0 0 0 0 0 0 0 0 0 0 0 0 0 0 0 0 0 0 0 0 0 0 0 0 0 0 0 0 0 0 0 0 0 0 0 0 0 0 0 0 0 0
0 0 0 0 0 0 0 0 0 0 0 0 0 0 0 0 0 0 0 0 0 0 0 0 0 0 0 0 0 0 0 0 0 0 0 0 0 0 0 0 0 0 0
0 0 0 0 0 0 0 0 0 0 0 0 0 0 0 0 0 0 0 0 0 0 0 0 0 0 0 0 0 0 0 0 0 0 0 0 0 0 0 0 0 0 0
0 0 0 0 0 0 0 0 0 0 0 0 0 0 0 0 0 0 0 0 0 0 0 0 0 0 0 0 0 0 0 0 0 0 0 0 0 0 0 0 0 0 0
0 0 0 0 0 0 0 0 0 0 0 0 0 0 0 0 0 0 0 0 0 0 0 0 0 0 0 0 0 0 0 0 0 0 0 0 0 0 0 0 0 0 0
Wind_Speed
3 3 2 2 2 2 3 3 3 4 4 4 3 4 3 3 2 2 2 4 3 3 4 5 5 6 6 6 6 5 6 6 6 6 6 6 6 6 6 6 6 7 7
3 3 3 2 2 2 2 3 4 4 3 3 3 3 3 3 3 3 2 3 5 4 2 3 4 5 5 5 5 5 5 5 5 5 5 5 6 6 6 6 6 7 7
4 3 3 3 2 2 3 3 4 4 4 3 3 3 3 3 3 3 3 2 3 5 5 3 3 3 3 4 4 4 4 4 4 4 4 4 4 5 5 5 5 5 5
5 4 3 2 3 3 3 3 3 3 3 3 3 3 2 3 4 3 3 3 2 2 4 5 4 3 2 2 3 3 4 3 3 3 3 3 3 4 4 4 4 4 5
4 4 3 3 3 3 2 3 3 3 3 3 3 3 3 2 3 3 3 3 3 3 3 4 5 5 5 3 2 2 3 3 3 2 2 2 3 3 3 3 3 3 3
5 4 3 3 3 3 2 3 4 3 3 3 4 4 3 2 2 3 2 2 2 3 3 3 3 4 5 4 3 2 2 2 2 2 2 2 2 2 2 2 3 3 3
5 4 3 3 3 3 3 4 3 4 2 2 3 2 2 3 3 2 2 2 3 2 3 3 2 2 2 4 4 3 2 2 2 2 1 2 2 2 2 2 2 2 2
4 4 4 3 3 3 4 3 3 3 2 1 2 2 1 2 2 2 2 2 2 2 3 3 3 3 2 2 3 3 3 2 2 2 1 1 2 2 1 1 1 2 2
4 4 4 4 3 3 3 3 3 4 3 1 1 3 3 2 0 1 2 2 2 2 2 2 3 2 2 1 2 3 3 3 1 1 1 2 1 1 1 0 1 1 2
3 3 4 4 4 3 3 3 3 2 4 3 1 1 1 3 2 0 1 2 2 2 2 2 2 2 2 1 2 3 4 3 2 1 1 1 1 1 1 1 1 1 2
2 3 3 3 4 3 3 3 3 3 3 3 3 2 2 2 1 2 1 1 1 1 1 1 1 1 1 1 1 2 3 3 2 2 2 2 2 3 3 2 2 2 2
2 2 3 3 3 3 3 3 3 3 3 3 2 2 2 2 2 2 2 1 1 1 1 1 1 1 1 1 2 3 3 3 3 3 3 3 3 3 3 4 3 3 3
2 3 2 3 3 3 3 3 3 3 3 3 3 2 2 2 2 2 2 2 1 1 1 1 1 1 1 1 1 2 2 3 3 3 3 3 3 3 3 4 4 4 4
3 3 3 3 3 3 3 4 3 2 2 3 3 3 2 2 2 2 3 3 1 1 1 2 1 1 1 1 2 2 1 3 3 3 4 4 4 3 3 4 4 4 4
3 4 4 3 3 3 3 4 3 3 3 2 3 3 2 1 2 2 2 2 3 2 2 2 2 1 1 1 2 1 1 2 2 2 3 3 3 3 3 3 3 3 4
3 4 4 3 3 3 3 3 3 3 3 2 2 3 2 1 2 2 2 1 2 3 2 2 2 2 1 1 2 1 2 3 3 3 3 4 4 4 4 4 4 4 5
3 4 4 4 4 3 3 3 3 4 4 3 3 3 3 3 2 2 2 2 2 2 2 2 1 1 1 1 2 2 2 2 2 4 4 5 5 5 5 5 5 5 5
3 4 4 4 4 4 3 4 4 4 4 4 4 3 3 2 3 2 2 3 2 2 3 3 2 1 2 2 2 2 2 2 2 4 5 6 6 5 5 6 6 6 6
3 3 3 4 4 4 4 4 4 4 4 4 4 4 4 4 4 3 3 3 3 2 2 2 2 1 1 1 1 2 2 2 2 4 5 5 6 6 6 7 7 6 6
3 3 3 4 4 4 4 4 4 4 4 4 4 4 4 5 5 4 4 4 3 3 2 2 1 1 1 1 1 2 2 2 2 2 4 4 5 6 7 7 7 6 6
2 2 3 3 3 3 3 4 4 4 4 3 3 4 4 5 6 5 3 4 4 3 2 2 2 1 1 1 2 2 3 2 3 2 2 2 3 3 3 6 7 7 7
2 2 2 3 3 3 4 5 4 4 4 4 4 3 3 4 5 5 5 5 5 4 4 3 2 3 4 3 2 2 2 2 3 2 2 3 2 3 3 3 6 8 8
2 2 2 2 3 4 5 6 6 4 4 4 4 3 2 2 4 3 4 4 4 5 6 5 5 5 4 5 4 3 3 3 4 2 1 4 2 4 3 4 8 9 8
2 2 2 2 2 3 5 5 5 4 3 3 4 4 4 3 3 4 3 3 4 4 5 4 5 6 5 5 5 5 4 3 2 2 2 3 3 3 3 3 7 8 9
1 2 2 2 2 2 4 5 4 3 3 3 3 3 4 4 5 5 4 4 4 4 4 6 6 5 5 5 4 1 1 1 3 3 2 2 2 3 3 3 4 7 8
2 1 1 1 2 2 2 3 4 3 3 2 2 3 5 5 5 6 5 4 5 4 3 3 4 4 4 4 6 4 4 3 3 3 3 2 2 1 3 3 2 3 4
Wind_Direction
120 109 102 95 93 93 100 99 94 93 88 85 86 92 90 84 76 68 40 52 61 91 122 130 128 124 124 122 114 110 109 105 99 94 91 86 84 86 83 76 71 70 70
129 123 114 107 102 105 107 106 104 101 94 90 84 82 81 77 69 67 53 44 47 51 92 128 127 125 126 128 124 120 117 115 108 101 93 90 86 82 80 78 71 66 64
131 127 123 118 115 110 106 102 99 96 96 89 81 76 76 75 69 59 52 50 42 42 55 80 102 118 129 131 131 132 122 116 115 109 100 95 89 87 86 78 70 63 58
137 130 125 125 121 111 110 110 107 98 92 91 83 69 64 67 65 58 55 54 52 43 46 54 59 73 86 110 123 122 122 118 123 118 115 106 99 96 89 81 69 60 55
136 132 128 126 123 111 109 118 101 106 106 101 93 72 59 58 57 54 51 51 55 56 50 41 41 45 49 61 93 114 123 131 131 132 127 122 114 108 100 87 72 58 48
133 126 121 126 127 116 106 110 109 98 104 106 91 68 52 48 51 47 43 42 41 45 52 50 35 31 39 43 56 80 86 111 132 147 138 132 127 122 109 92 78 60 43
135 130 127 128 131 127 131 128 119 107 95 107 93 67 36 43 48 35 31 45 38 32 46 50 46 38 21 28 33 49 63 73 77 111 127 145 145 130 113 95 73 56 43
138 137 135 139 136 128 130 135 129 122 111 109 121 114 74 9 4 20 28 47 36 29 45 46 49 44 29 21 16 21 28 49 62 64 58 234 208 182 169 135 78 50 33
138 138 143 141 144 143 150 154 152 143 149 131 109 141 149 189 308 352 16 33 37 37 28 33 47 40 26 14 13 6 16 15 7 4 5 23 26 192 197 150 60 21 7
138 138 145 148 152 153 155 164 164 149 145 153 129 70 108 139 143 123 343 10 24 31 17 9 30 43 32 14 17 19 17 9 357 347 340 355 359 356 5 7 359 358 359
136 141 148 152 158 160 161 162 159 154 156 161 156 143 114 84 109 144 207 301 344 345 342 333 355 21 17 17 5 10 13 359 346 346 339 349 354 356 344 336 349 341 337
140 148 152 154 161 161 165 167 169 168 167 161 156 153 156 158 165 157 172 203 253 300 322 335 348 339 342 351 353 8 12 353 345 343 339 342 347 355 350 339 336 330 327
165 180 159 160 162 168 166 158 156 165 166 161 167 175 174 172 151 149 146 166 202 287 318 318 288 305 328 349 330 345 352 349 344 336 327 329 335 340 336 328 330 327 327
177 171 166 164 157 158 161 154 149 162 163 170 170 164 168 176 155 154 154 150 153 279 283 269 294 267 292 314 312 320 322 332 332 328 322 322 327 330 326 319 318 318 319
162 161 166 163 159 157 158 156 161 165 164 176 174 168 167 173 159 154 148 153 158 196 251 250 257 273 279 282 297 288 278 295 302 310 311 311 308 309 308 303 302 305 303
161 159 162 164 165 163 158 160 161 159 160 179 177 173 181 172 164 156 159 161 163 173 223 245 238 267 278 292 295 290 271 289 287 284 287 288 284 284 288 288 284 285 289
160 163 168 167 169 172 167 168 174 166 172 181 179 183 195 177 173 178 172 170 174 163 209 263 260 269 266 273 296 285 272 264 268 277 278 276 273 275 281 282 283 281 284
162 168 167 166 174 178 180 185 188 182 182 189 193 189 197 180 184 184 181 189 192 187 187 234 260 259 256 259 272 278 286 280 265 274 272 272 271 273 278 280 283 281 282
162 165 167 175 182 184 187 193 192 190 192 196 193 194 198 188 199 194 191 195 195 190 185 203 241 249 259 272 285 289 280 278 281 274 267 269 270 274 277 278 278 277 277
164 169 179 184 185 183 184 187 187 189 192 197 195 198 200 200 204 199 198 200 189 181 183 196 225 245 257 272 249 266 286 277 283 292 278 276 276 279 278 278 276 274 274
165 172 170 178 179 181 187 185 188 188 189 195 200 206 207 207 206 200 198 196 189 190 191 204 222 242 252 254 244 243 267 285 277 260 271 275 273 268 268 271 271 266 266
155 158 172 179 186 199 194 192 189 188 190 194 202 207 213 212 211 207 207 202 196 197 203 208 224 232 241 239 240 246 258 282 279 249 241 272 255 262 263 253 265 266 266
152 162 183 186 201 207 197 195 194 186 190 198 201 199 209 219 217 210 217 222 218 220 213 208 219 230 233 227 220 237 239 246 256 255 242 269 258 261 264 265 268 265 264
165 183 193 193 204 213 197 192 191 187 189 200 203 201 203 212 211 206 207 218 227 231 229 224 223 231 232 220 211 223 230 247 282 267 222 253 258 260 277 269 267 266 267
168 190 196 191 193 217 201 194 183 185 194 206 208 205 204 208 214 210 206 216 233 248 254 246 250 256 254 242 222 185 195 235 267 258 215 231 261 283 280 271 271 274 276
183 181 193 201 199 218 209 200 192 189 198 208 206 212 217 217 220 213 212 214 232 243 240 253 262 269 255 236 221 209 199 220 250 255 213 210 244 276 286 273 274 278 274